TimeAKST,TemperatureF,Dew PointF,Humidity,Sea Level PressureIn,VisibilityMPH,Wind Direction,Wind SpeedMPH,Gust SpeedMPH,PrecipitationIn,Events,Conditions,WindDirDegrees,DateUTC
12:16 AM,-18.4,-23.8,76,30.16,10.0,Calm,Calm,-,N/A,,Clear,0,2012-11-28 09:16:00
12:36 AM,-20.2,-23.8,83,30.15,10.0,Calm,Calm,-,N/A,,Clear,0,2012-11-28 09:36:00
12:56 AM,-20.2,-23.8,83,30.15,10.0,Calm,Calm,-,N/A,,Clear,0,2012-11-28 09:56:00
1:16 AM,-20.2,-25.6,76,30.15,10.0,Calm,Calm,-,N/A,,Clear,0,2012-11-28 10:16:00
1:36 AM,-20.2,-25.6,76,30.15,10.0,Calm,Calm,-,N/A,,Clear,0,2012-11-28 10:36:00
1:56 AM,-20.2,-25.6,76,30.14,10.0,Calm,Calm,-,N/A,,Clear,0,2012-11-28 10:56:00
2:16 AM,-20.2,-25.6,76,30.14,10.0,Calm,Calm,-,N/A,,Clear,0,2012-11-28 11:16:00
2:36 AM,-20.2,-25.6,76,30.14,10.0,Calm,Calm,-,N/A,,Clear,0,2012-11-28 11:36:00
2:56 AM,-20.2,-25.6,76,30.15,10.0,Calm,Calm,-,N/A,,Clear,0,2012-11-28 11:56:00
3:16 AM,-20.2,-25.6,76,30.14,10.0,Calm,Calm,-,N/A,,Clear,0,2012-11-28 12:16:00
3:36 AM,-22.0,-25.6,83,30.14,10.0,Calm,Calm,-,N/A,,Clear,0,2012-11-28 12:36:00
3:56 AM,-22.0,-27.4,76,30.14,10.0,Calm,Calm,-,N/A,,Clear,0,2012-11-28 12:56:00
4:16 AM,-22.0,-27.4,76,30.14,10.0,Calm,Calm,-,N/A,,Clear,0,2012-11-28 13:16:00
4:36 AM,-23.8,-27.4,83,30.13,10.0,Calm,Calm,-,N/A,,Clear,0,2012-11-28 13:36:00
4:56 AM,-22.0,-27.4,76,30.13,10.0,Calm,Calm,-,N/A,,Clear,0,2012-11-28 13:56:00
5:16 AM,-23.8,-27.4,83,30.13,10.0,Calm,Calm,-,N/A,,Clear,0,2012-11-28 14:16:00
5:36 AM,-23.8,-27.4,83,30.13,10.0,Calm,Calm,-,N/A,,Clear,0,2012-11-28 14:36:00
5:56 AM,-23.8,-27.4,83,30.13,10.0,Calm,Calm,-,N/A,,Clear,0,2012-11-28 14:56:00
6:16 AM,-23.8,-27.4,83,30.12,10.0,Calm,Calm,-,N/A,,Clear,0,2012-11-28 15:16:00
6:36 AM,-23.8,-27.4,83,30.12,10.0,Calm,Calm,-,N/A,,Clear,0,2012-11-28 15:36:00
6:56 AM,-23.8,-27.4,83,30.12,10.0,Calm,Calm,-,N/A,,Clear,0,2012-11-28 15:56:00
7:16 AM,-23.8,-27.4,83,30.12,10.0,Calm,Calm,-,N/A,,Clear,0,2012-11-28 16:16:00
7:36 AM,-23.8,-29.2,76,30.12,10.0,Calm,Calm,-,N/A,,Clear,0,2012-11-28 16:36:00
7:56 AM,-23.8,-27.4,83,30.11,10.0,Calm,Calm,-,N/A,,Clear,0,2012-11-28 16:56:00
8:16 AM,-23.8,-27.4,83,30.11,10.0,Calm,Calm,-,N/A,,Clear,0,2012-11-28 17:16:00
8:36 AM,-23.8,-27.4,83,30.11,10.0,Calm,Calm,-,N/A,,Clear,0,2012-11-28 17:36:00
8:56 AM,-23.8,-27.4,83,30.10,10.0,Calm,Calm,-,N/A,,Clear,0,2012-11-28 17:56:00
9:16 AM,-23.8,-27.4,83,30.10,10.0,Calm,Calm,-,N/A,,Clear,0,2012-11-28 18:16:00
9:36 AM,-22.0,-27.4,76,30.09,10.0,Calm,Calm,-,N/A,,Clear,0,2012-11-28 18:36:00
9:56 AM,-23.8,-27.4,83,30.09,10.0,Calm,Calm,-,N/A,,Clear,0,2012-11-28 18:56:00
10:16 AM,-23.8,-29.2,76,30.08,10.0,Calm,Calm,-,N/A,,Clear,0,2012-11-28 19:16:00
10:36 AM,-23.8,-29.2,76,30.08,10.0,Calm,Calm,-,N/A,,Clear,0,2012-11-28 19:36:00
10:56 AM,-23.8,-27.4,83,30.08,10.0,Calm,Calm,-,N/A,,Clear,0,2012-11-28 19:56:00
11:16 AM,-22.0,-25.6,83,30.07,10.0,Calm,Calm,-,N/A,,Clear,0,2012-11-28 20:16:00
11:36 AM,-18.4,-23.8,76,30.07,10.0,Calm,Calm,-,N/A,,Clear,0,2012-11-28 20:36:00
11:56 AM,-18.4,-23.8,76,30.06,10.0,Calm,Calm,-,N/A,,Clear,0,2012-11-28 20:56:00
12:16 PM,-18.4,-22.0,84,30.05,10.0,Calm,Calm,-,N/A,,Clear,0,2012-11-28 21:16:00
12:36 PM,-16.6,-22.0,76,30.04,10.0,Calm,Calm,-,N/A,,Clear,0,2012-11-28 21:36:00
12:56 PM,-16.6,-20.2,84,30.04,10.0,Calm,Calm,-,N/A,,Clear,0,2012-11-28 21:56:00
1:16 PM,-16.6,-20.2,84,30.03,10.0,Calm,Calm,-,N/A,,Clear,0,2012-11-28 22:16:00
1:36 PM,-16.6,-20.2,84,30.03,10.0,Calm,Calm,-,N/A,,Clear,0,2012-11-28 22:36:00
1:56 PM,-16.6,-22.0,76,30.02,10.0,Calm,Calm,-,N/A,,Clear,0,2012-11-28 22:56:00
2:16 PM,-18.4,-23.8,76,30.02,10.0,Calm,Calm,-,N/A,,Clear,0,2012-11-28 23:16:00
2:36 PM,-18.4,-23.8,76,30.01,10.0,Calm,Calm,-,N/A,,Clear,0,2012-11-28 23:36:00
2:56 PM,-18.4,-23.8,76,30.00,10.0,Calm,Calm,-,N/A,,Clear,0,2012-11-28 23:56:00
3:16 PM,-18.4,-23.8,76,30.00,10.0,Calm,Calm,-,N/A,,Clear,0,2012-11-29 00:16:00
3:36 PM,-18.4,-23.8,76,30.00,10.0,Calm,Calm,-,N/A,,Clear,0,2012-11-29 00:36:00
3:56 PM,-20.2,-25.6,76,30.00,10.0,Calm,Calm,-,N/A,,Clear,0,2012-11-29 00:56:00
4:16 PM,-20.2,-25.6,76,30.00,10.0,Calm,Calm,-,N/A,,Clear,0,2012-11-29 01:16:00
4:36 PM,-20.2,-25.6,76,30.00,10.0,Calm,Calm,-,N/A,,Clear,0,2012-11-29 01:36:00
4:56 PM,-22.0,-27.4,76,30.00,10.0,Calm,Calm,-,N/A,,Clear,0,2012-11-29 01:56:00
5:16 PM,-22.0,-27.4,76,30.01,10.0,Calm,Calm,-,N/A,,Clear,0,2012-11-29 02:16:00
5:36 PM,-23.8,-29.2,76,30.00,10.0,Calm,Calm,-,N/A,,Clear,0,2012-11-29 02:36:00
5:56 PM,-23.8,-29.2,76,30.00,10.0,Calm,Calm,-,N/A,,Clear,0,2012-11-29 02:56:00
6:16 PM,-25.6,-29.2,83,30.00,10.0,Calm,Calm,-,N/A,,Clear,0,2012-11-29 03:16:00
6:36 PM,-25.6,-29.2,83,30.00,10.0,Calm,Calm,-,N/A,,Clear,0,2012-11-29 03:36:00
6:56 PM,-25.6,-31.0,76,30.00,10.0,Calm,Calm,-,N/A,,Clear,0,2012-11-29 03:56:00
7:16 PM,-25.6,-31.0,76,30.00,10.0,Calm,Calm,-,N/A,,Clear,0,2012-11-29 04:16:00
7:36 PM,-25.6,-31.0,76,29.99,10.0,Calm,Calm,-,N/A,,Clear,0,2012-11-29 04:36:00
7:56 PM,-25.6,-32.8,69,29.99,10.0,Calm,Calm,-,N/A,,Clear,0,2012-11-29 04:56:00
8:16 PM,-27.4,-32.8,75,29.99,10.0,Calm,Calm,-,N/A,,Clear,0,2012-11-29 05:16:00
8:36 PM,-27.4,-32.8,75,29.99,10.0,Calm,Calm,-,N/A,,Clear,0,2012-11-29 05:36:00
8:56 PM,-27.4,-32.8,75,29.99,10.0,Calm,Calm,-,N/A,,Clear,0,2012-11-29 05:56:00
9:16 PM,-27.4,-32.8,75,29.98,10.0,Calm,Calm,-,N/A,,Clear,0,2012-11-29 06:16:00
9:36 PM,-27.4,-32.8,75,29.98,10.0,Calm,Calm,-,N/A,,Clear,0,2012-11-29 06:36:00
9:56 PM,-27.4,-32.8,75,29.98,10.0,Calm,Calm,-,N/A,,Clear,0,2012-11-29 06:56:00
10:16 PM,-27.4,-32.8,75,29.98,10.0,Calm,Calm,-,N/A,,Clear,0,2012-11-29 07:16:00
10:36 PM,-27.4,-32.8,75,29.97,10.0,Calm,Calm,-,N/A,,Clear,0,2012-11-29 07:36:00
10:56 PM,-27.4,-32.8,75,29.97,10.0,Calm,Calm,-,N/A,,Clear,0,2012-11-29 07:56:00
11:16 PM,-27.4,-34.6,69,29.97,10.0,Calm,Calm,-,N/A,,Clear,0,2012-11-29 08:16:00
11:36 PM,-27.4,-34.6,69,29.97,10.0,Calm,Calm,-,N/A,,Clear,0,2012-11-29 08:36:00
11:56 PM,-29.2,-34.6,75,29.97,10.0,Calm,Calm,-,N/A,,Clear,0,2012-11-29 08:56:00